Wakefield, VA

5:57 PM EDT on October 23, 2019 (GMT -0400)
Wakefield Municipal

Weather History for KAKQ - September, 2019

Change the Weather History Date:

Friday, September 20, 2019

  Actual Average (WUND) Record (WUND)
Temperature  
Mean Temperature 60 °F -  
Max Temperature 78 °F - - (-1)
Min Temperature 46 °F - - (-1)
Degree Days  
Heating Degree Days 4    
Growing Degree Days 10 (Base 50)    
Moisture  
Dew Point 51 °F    
Average Humidity 73    
Maximum Humidity 93    
Minimum Humidity 38    
Precipitation  
Precipitation 0.00 in - - ()
Sea Level Pressure  
Sea Level Pressure 30.29 in    
Wind  
Wind Speed 0 mph (North)    
Max Wind Speed 4 mph    
Max Gust Speed -    
Visibility 10 miles    
Events      
Averages and records for this station are not official NWS values.
T = Trace of Precipitation, MM = Missing Value Source: NWS Daily Summary

Daily Weather History Graph

Daily Weather History Graph

Search for Another Location

Airport or City:

Astronomy

Sep. 20, 2019 Rise Set
Actual Time 6:54 AM EDT 7:08 PM EDT
Civil Twilight 6:28 AM EDT 7:34 PM EDT
Nautical Twilight 5:57 AM EDT 8:04 PM EDT
Astronomical Twilight 5:26 AM EDT 8:35 PM EDT
Moon 11:05 PM EDT (9/20) 12:48 PM EDT (9/20)
Length of Visible Light 13h 06m
Length of Day
12h 14m
Waning Gibbous, 65% of the Moon is Illuminated
Sep 20
Waning Gibbous
Sep 21
Last Quarter
Sep 28
New
Oct 5
First Quarter
Oct 13
Full

Hourly Weather History & Observations

Time (EDT) Temp. Dew Point Humidity Pressure Visibility Wind Dir Wind Speed Gust Speed Precip Events Conditions
12:54 AM 51.1 °F 48.0 °F 89% 30.29 in 10.0 mi Calm Calm - N/A   Clear
1:54 AM 50.0 °F 46.9 °F 89% 30.30 in 10.0 mi Calm Calm - N/A   Clear
2:54 AM 48.9 °F 46.0 °F 90% 30.29 in 10.0 mi Calm Calm - N/A   Clear
3:54 AM 48.0 °F 45.0 °F 89% 30.30 in 10.0 mi Calm Calm - N/A   Clear
4:54 AM 46.9 °F 45.0 °F 93% 30.30 in 10.0 mi Calm Calm - N/A   Clear
5:54 AM 46.9 °F 44.1 °F 90% 30.32 in 10.0 mi Calm Calm - N/A   Clear
6:54 AM 46.0 °F 43.0 °F 89% 30.33 in 10.0 mi Calm Calm - N/A   Clear
7:54 AM 51.1 °F 48.0 °F 89% 30.34 in 10.0 mi Calm Calm - N/A   Clear
8:54 AM 61.0 °F 54.0 °F 78% 30.35 in 10.0 mi Calm Calm - N/A   Clear
9:54 AM 68.0 °F 55.0 °F 63% 30.35 in 10.0 mi Calm Calm - N/A   Clear
10:54 AM 69.1 °F 52.0 °F 54% 30.34 in 10.0 mi Calm Calm - N/A   Clear
11:54 AM 71.1 °F 52.0 °F 51% 30.33 in 10.0 mi Variable 3.5 mph - N/A   Clear
1:54 PM 73.0 °F 51.1 °F 46% 30.28 in 10.0 mi Calm Calm - N/A   Clear
2:54 PM 75.0 °F 51.1 °F 43% 30.26 in 10.0 mi Variable 3.5 mph - N/A   Clear
3:54 PM 75.9 °F 48.9 °F 38% 30.25 in 10.0 mi Variable 3.5 mph - N/A   Clear
4:54 PM 75.9 °F 53.1 °F 45% 30.24 in 10.0 mi Calm Calm - N/A   Clear
5:54 PM 75.9 °F 52.0 °F 43% 30.24 in 10.0 mi Calm Calm - N/A   Clear
6:54 PM 68.0 °F 57.9 °F 70% 30.25 in 10.0 mi Calm Calm - N/A   Clear
7:54 PM 62.1 °F 55.9 °F 80% 30.26 in 10.0 mi Calm Calm - N/A   Clear
8:54 PM 59.0 °F 55.0 °F 87% 30.27 in 10.0 mi Calm Calm - N/A   Clear
9:54 PM 59.0 °F 55.0 °F 87% 30.27 in 10.0 mi Calm Calm - N/A   Clear
10:54 PM 57.9 °F 53.1 °F 84% 30.27 in 10.0 mi Calm Calm - N/A   Clear
11:54 PM 55.9 °F 52.0 °F 87% 30.28 in 10.0 mi Calm Calm - N/A   Clear